Year,Month,Day,Hour,Minute,Value (Times are PST for barometer in hPa)
2021,09,08,00,47,906.47
2021,09,08,00,48,906.47
2021,09,08,00,49,906.47
2021,09,08,00,50,906.47
2021,09,08,00,51,906.47
2021,09,08,00,52,906.47
2021,09,08,00,53,906.47
2021,09,08,00,54,906.47
2021,09,08,00,55,906.47
2021,09,08,00,56,906.47
2021,09,08,00,57,906.47
2021,09,08,00,58,906.47
2021,09,08,00,59,906.47
2021,09,08,01,00,906.47
2021,09,08,01,01,906.47
2021,09,08,01,02,906.47
2021,09,08,01,03,906.47
2021,09,08,01,04,906.47
2021,09,08,01,05,906.47
2021,09,08,01,06,906.47
2021,09,08,01,07,906.47
2021,09,08,01,08,906.47
2021,09,08,01,09,906.47
2021,09,08,01,10,906.47
2021,09,08,01,11,906.47
2021,09,08,01,12,906.47
2021,09,08,01,13,906.47
2021,09,08,01,14,909.99
2021,09,08,01,15,912.53
2021,09,08,01,16,912.22
2021,09,08,01,17,912.19
2021,09,08,01,18,912.19
2021,09,08,01,19,912.19
2021,09,08,01,20,912.19
2021,09,08,01,21,912.19
2021,09,08,01,22,912.19
2021,09,08,01,23,912.19
2021,09,08,01,24,912.19
2021,09,08,01,25,912.19
2021,09,08,01,26,912.19
2021,09,08,01,27,912.19
2021,09,08,01,28,912.19
2021,09,08,01,29,912.19
2021,09,08,01,30,912.19
2021,09,08,01,31,912.19
2021,09,08,01,32,912.19
2021,09,08,01,33,912.19
2021,09,08,01,34,912.19
2021,09,08,01,35,912.19
2021,09,08,01,36,912.19
2021,09,08,01,37,912.19
2021,09,08,01,38,912.19
2021,09,08,01,39,912.19
2021,09,08,01,40,912.19
2021,09,08,01,41,912.19
2021,09,08,01,42,912.19
2021,09,08,01,43,912.19
2021,09,08,01,44,912.19
2021,09,08,01,45,912.19
2021,09,08,01,46,912.19
2021,09,08,01,47,912.19
2021,09,08,01,48,912.19
2021,09,08,01,49,912.19
2021,09,08,01,50,912.19
2021,09,08,01,51,912.19
2021,09,08,01,52,912.19
2021,09,08,01,53,912.19
2021,09,08,01,54,912.19
2021,09,08,01,55,912.19
2021,09,08,01,56,912.19
2021,09,08,01,57,912.19
2021,09,08,01,58,912.19
2021,09,08,01,59,912.19
2021,09,08,02,00,912.19
2021,09,08,02,01,912.19
2021,09,08,02,02,912.19
2021,09,08,02,03,912.19
2021,09,08,02,04,912.19
2021,09,08,02,05,912.19
2021,09,08,02,06,912.19
2021,09,08,02,07,912.19
2021,09,08,02,08,912.19
2021,09,08,02,09,912.19
2021,09,08,02,10,924.29
2021,09,08,02,11,935.19
2021,09,08,02,12,935.19
2021,09,08,02,13,935.19
2021,09,08,02,14,935.19
2021,09,08,02,15,935.19
2021,09,08,02,16,935.19
2021,09,08,02,17,935.19
2021,09,08,02,18,935.19
2021,09,08,02,19,935.19
2021,09,08,02,20,935.19
2021,09,08,02,21,935.19
2021,09,08,02,22,935.19
2021,09,08,02,23,935.19
2021,09,08,02,24,935.19
2021,09,08,02,25,935.19
2021,09,08,02,26,935.19
2021,09,08,02,27,935.19
2021,09,08,02,28,935.19
2021,09,08,02,29,935.19
2021,09,08,02,30,935.19
2021,09,08,02,31,935.19
2021,09,08,02,32,935.19
2021,09,08,02,33,935.19
2021,09,08,02,34,935.19
2021,09,08,02,35,935.19
2021,09,08,02,36,935.19
2021,09,08,02,37,935.19
2021,09,08,02,38,935.19
2021,09,08,02,39,935.19
2021,09,08,02,40,935.19
2021,09,08,02,41,935.19
2021,09,08,02,42,935.19
2021,09,08,02,43,935.19
2021,09,08,02,44,935.19
2021,09,08,02,45,935.19
2021,09,08,02,46,935.19
2021,09,08,02,47,941.00
2021,09,08,02,48,945.75
2021,09,08,02,49,945.75
2021,09,08,02,50,945.75
2021,09,08,02,51,945.75
2021,09,08,02,52,945.75
2021,09,08,02,53,945.75
2021,09,08,02,54,945.75
2021,09,08,02,55,945.75
2021,09,08,02,56,945.75
2021,09,08,02,57,945.75
2021,09,08,02,58,945.75
2021,09,08,02,59,945.75
2021,09,08,03,00,947.20
2021,09,08,03,01,948.39
2021,09,08,03,02,948.39
2021,09,08,03,06,948.39
2021,09,08,03,07,948.39
2021,09,08,03,08,948.39
2021,09,08,03,09,948.39
2021,09,08,03,10,948.39
2021,09,08,03,11,948.39
2021,09,08,03,12,948.39
2021,09,08,03,13,948.39
2021,09,08,03,14,948.39
2021,09,08,03,15,948.39
2021,09,08,03,16,948.39
2021,09,08,03,17,948.39
2021,09,08,03,18,918.26
2021,09,08,03,19,905.35
2021,09,08,03,20,905.35
2021,09,08,03,21,905.35
2021,09,08,03,22,905.35
2021,09,08,03,23,905.35
2021,09,08,03,24,905.35
2021,09,08,03,25,905.35
2021,09,08,03,26,905.35
2021,09,08,03,27,905.35
2021,09,08,03,28,905.35
2021,09,08,03,29,905.35
2021,09,08,03,30,905.35
2021,09,08,03,31,905.35
2021,09,08,03,32,905.35
2021,09,08,03,33,905.35
2021,09,08,03,34,905.35
2021,09,08,03,35,905.35
2021,09,08,03,36,905.35
2021,09,08,03,37,905.35
2021,09,08,03,38,905.35
2021,09,08,03,39,905.35
2021,09,08,03,40,905.35
2021,09,08,03,41,905.35
2021,09,08,03,42,905.35
2021,09,08,03,43,905.35
2021,09,08,03,44,905.35
2021,09,08,03,45,905.35
2021,09,08,03,46,905.35
2021,09,08,03,47,905.35
2021,09,08,03,48,905.35
2021,09,08,03,49,905.35
2021,09,08,03,50,905.35
2021,09,08,03,51,905.35
2021,09,08,03,52,905.35
2021,09,08,03,53,905.35
2021,09,08,03,54,905.35
2021,09,08,03,55,905.35
2021,09,08,03,56,905.35
2021,09,08,03,57,905.35
2021,09,08,03,58,905.35
2021,09,08,03,59,905.35
2021,09,08,04,00,905.35
2021,09,08,04,01,905.35
2021,09,08,04,02,905.35
2021,09,08,04,03,905.35
2021,09,08,04,04,905.35
2021,09,08,04,05,905.35
2021,09,08,04,06,905.35
2021,09,08,04,07,905.35
2021,09,08,04,08,905.35
2021,09,08,04,09,905.35
2021,09,08,04,10,905.35
2021,09,08,04,11,905.35
2021,09,08,04,12,905.35
2021,09,08,04,13,905.35
2021,09,08,04,14,905.35
2021,09,08,04,15,905.35
2021,09,08,04,16,934.13
2021,09,08,04,17,946.46
2021,09,08,04,18,946.46
2021,09,08,04,19,946.46
2021,09,08,04,20,946.46
2021,09,08,04,21,946.46
2021,09,08,04,22,946.46
2021,09,08,04,23,946.46
2021,09,08,04,24,946.46
2021,09,08,04,25,946.46
2021,09,08,04,26,946.46
2021,09,08,04,27,946.46
2021,09,08,04,28,946.46
2021,09,08,04,29,946.46
2021,09,08,04,30,946.46
2021,09,08,04,31,946.46
2021,09,08,04,32,946.46
2021,09,08,04,33,946.46
2021,09,08,04,34,946.46
2021,09,08,04,35,946.46
2021,09,08,04,36,946.46
2021,09,08,04,37,946.46
2021,09,08,04,38,946.46
2021,09,08,04,39,946.46
2021,09,08,04,40,946.46
2021,09,08,04,41,946.46
2021,09,08,04,42,946.46
2021,09,08,04,43,946.46
2021,09,08,04,44,946.46
2021,09,08,04,45,946.46
2021,09,08,04,46,946.46
2021,09,08,04,47,946.46
2021,09,08,04,48,946.46
2021,09,08,04,49,946.46
2021,09,08,04,50,946.46
2021,09,08,04,51,946.46
2021,09,08,04,52,946.46
2021,09,08,04,53,946.46
2021,09,08,04,54,946.46
2021,09,08,04,55,946.46
2021,09,08,04,56,946.46
2021,09,08,04,57,946.46
2021,09,08,04,58,946.46
2021,09,08,04,59,946.46
2021,09,08,05,00,946.46
2021,09,08,05,01,953.22
2021,09,08,05,02,956.11
2021,09,08,05,03,956.11
2021,09,08,05,04,957.11
2021,09,08,05,05,957.54
2021,09,08,05,06,957.54
2021,09,08,05,07,957.54
2021,09,08,05,08,957.54
2021,09,08,05,09,954.38
2021,09,08,05,10,953.03
2021,09,08,05,11,953.03
2021,09,08,05,12,953.03
2021,09,08,05,13,953.03
2021,09,08,05,14,953.03
2021,09,08,05,15,953.03
2021,09,08,05,16,953.03
2021,09,08,05,17,953.03
2021,09,08,05,18,953.03
2021,09,08,05,19,953.03
2021,09,08,05,20,953.03
2021,09,08,05,21,953.03
2021,09,08,05,22,953.03
2021,09,08,05,23,953.03
2021,09,08,05,24,953.03
2021,09,08,05,25,953.03
2021,09,08,05,26,953.03
2021,09,08,05,27,953.03
2021,09,08,05,28,953.03
2021,09,08,05,29,953.03
2021,09,08,05,30,953.03
2021,09,08,05,31,960.98
2021,09,08,05,32,964.65
2021,09,08,05,33,964.65
2021,09,08,05,34,964.65
2021,09,08,05,35,970.10
2021,09,08,05,36,972.44
2021,09,08,05,37,965.57
2021,09,08,05,38,962.62
2021,09,08,05,39,962.62
2021,09,08,05,40,962.62
2021,09,08,05,41,962.62
2021,09,08,05,42,962.62
2021,09,08,05,43,962.62
2021,09,08,05,44,962.62
2021,09,08,05,45,962.62
2021,09,08,05,46,962.62
2021,09,08,05,47,962.62
2021,09,08,05,48,962.62
2021,09,08,05,49,962.62
2021,09,08,05,50,962.62
2021,09,08,05,51,962.62
2021,09,08,05,52,962.62
2021,09,08,05,53,962.62
2021,09,08,05,54,962.62
2021,09,08,05,55,962.62
2021,09,08,05,56,962.62
2021,09,08,05,57,962.62
2021,09,08,05,58,962.62
2021,09,08,05,59,962.62
2021,09,08,06,00,962.62
2021,09,08,06,01,962.62
2021,09,08,06,02,962.62
2021,09,08,06,03,962.62
2021,09,08,06,04,962.62
2021,09,08,06,05,962.62
2021,09,08,06,06,962.62
2021,09,08,06,07,962.62
2021,09,08,06,08,962.62
2021,09,08,06,09,962.62
2021,09,08,06,10,962.62
2021,09,08,06,11,962.62
2021,09,08,06,12,962.62
2021,09,08,06,13,962.62
2021,09,08,06,14,962.62
2021,09,08,06,15,962.62
2021,09,08,06,16,962.62
2021,09,08,06,17,962.62
2021,09,08,06,18,962.62
2021,09,08,06,19,962.62
2021,09,08,06,20,962.62
2021,09,08,06,21,962.62
2021,09,08,06,22,962.62
2021,09,08,06,23,962.62
2021,09,08,06,24,962.62
2021,09,08,06,25,962.62
2021,09,08,06,26,962.62
2021,09,08,06,27,962.62
2021,09,08,06,28,962.62
2021,09,08,06,29,962.62
2021,09,08,06,30,962.62
2021,09,08,06,31,962.62
2021,09,08,06,32,962.62
2021,09,08,06,33,962.62
2021,09,08,06,34,962.62
2021,09,08,06,35,962.62
2021,09,08,06,36,962.62
2021,09,08,06,37,962.62
2021,09,08,06,38,962.62
2021,09,08,06,39,962.62
2021,09,08,06,40,962.62
2021,09,08,06,41,962.62
2021,09,08,06,42,962.62
2021,09,08,06,43,962.62
2021,09,08,06,44,962.62
2021,09,08,06,45,962.62
2021,09,08,06,46,962.62
2021,09,08,06,47,962.62
2021,09,08,06,48,962.62
2021,09,08,06,49,962.62
2021,09,08,06,50,962.62
2021,09,08,06,51,962.62
2021,09,08,06,52,962.62
2021,09,08,06,53,962.62
2021,09,08,06,54,962.62
2021,09,08,06,55,962.62
2021,09,08,06,56,962.62
2021,09,08,06,57,962.62
2021,09,08,06,58,962.62
2021,09,08,06,59,962.62
2021,09,08,07,00,962.62
2021,09,08,07,01,962.62
2021,09,08,07,02,962.62
2021,09,08,07,03,962.62
2021,09,08,07,04,962.62
2021,09,08,07,05,962.62
2021,09,08,07,06,962.62
2021,09,08,07,07,962.62
2021,09,08,07,08,962.62
2021,09,08,07,09,962.62
2021,09,08,07,10,962.62
2021,09,08,07,11,962.62
2021,09,08,07,12,962.62
2021,09,08,07,13,962.62
2021,09,08,07,14,962.62
2021,09,08,07,15,962.62
2021,09,08,07,16,962.62
2021,09,08,07,17,962.62
2021,09,08,07,18,962.62
2021,09,08,07,19,962.62
2021,09,08,07,20,962.62
2021,09,08,07,21,962.62
2021,09,08,07,22,962.62
2021,09,08,07,23,962.62
2021,09,08,07,24,962.62
2021,09,08,07,25,962.62
2021,09,08,07,26,959.58
2021,09,08,07,27,957.94
2021,09,08,07,28,957.94
2021,09,08,07,29,957.94
2021,09,08,07,30,957.94
2021,09,08,07,31,957.94
2021,09,08,07,32,957.94
2021,09,08,07,33,957.94
2021,09,08,07,34,957.94
2021,09,08,07,35,957.94
2021,09,08,07,36,957.94
2021,09,08,07,37,957.94
2021,09,08,07,38,957.94
2021,09,08,07,39,957.94
2021,09,08,07,40,957.94
2021,09,08,07,41,957.94
2021,09,08,07,42,957.94
2021,09,08,07,43,957.94
2021,09,08,07,44,957.94
2021,09,08,07,45,957.94
2021,09,08,07,46,957.94
2021,09,08,07,47,957.94
2021,09,08,07,48,957.94
2021,09,08,07,49,955.76
2021,09,08,07,50,954.76
2021,09,08,07,51,954.76
2021,09,08,07,52,952.05
2021,09,08,07,53,950.80
2021,09,08,07,54,950.80
2021,09,08,07,55,950.80
2021,09,08,07,56,950.80
2021,09,08,07,57,950.80
2021,09,08,07,58,950.80
2021,09,08,07,59,950.80
2021,09,08,08,00,950.80
2021,09,08,08,01,950.80
2021,09,08,08,02,950.80
2021,09,08,08,03,950.80
2021,09,08,08,04,950.80
2021,09,08,08,05,950.80
2021,09,08,08,06,950.80
2021,09,08,08,07,950.80
2021,09,08,08,08,958.44
2021,09,08,08,09,962.89
2021,09,08,08,10,962.89
2021,09,08,08,11,962.89
2021,09,08,08,12,962.89
2021,09,08,08,13,962.89
2021,09,08,08,14,962.89
2021,09,08,08,15,962.89
2021,09,08,08,16,962.89
2021,09,08,08,17,952.76
2021,09,08,08,18,947.31
2021,09,08,08,19,947.31
2021,09,08,08,20,947.31
2021,09,08,08,21,947.31
2021,09,08,08,22,947.31
2021,09,08,08,23,947.31
2021,09,08,08,24,960.89
2021,09,08,08,25,968.81
2021,09,08,08,26,968.81
2021,09,08,08,27,968.81
2021,09,08,08,28,968.81
2021,09,08,08,29,968.81
2021,09,08,08,30,968.81
2021,09,08,08,31,965.05
2021,09,08,08,32,963.02
2021,09,08,08,33,963.02
2021,09,08,08,34,963.02
2021,09,08,08,35,963.02
2021,09,08,08,36,963.02
2021,09,08,08,37,963.02
2021,09,08,08,38,963.02
2021,09,08,08,39,963.02
2021,09,08,08,40,963.02
2021,09,08,08,41,952.12
2021,09,08,08,42,945.41
2021,09,08,08,43,945.41
2021,09,08,08,44,945.41
2021,09,08,08,45,945.41
2021,09,08,08,46,945.41
2021,09,08,08,47,945.41
2021,09,08,08,48,945.41
2021,09,08,08,49,945.41
2021,09,08,08,50,945.41
2021,09,08,08,51,945.41
2021,09,08,08,52,943.93
2021,09,08,08,53,943.14
2021,09,08,08,54,949.13
2021,09,08,08,55,952.03
2021,09,08,08,56,951.85
2021,09,08,08,57,951.85
2021,09,08,08,58,951.85
2021,09,08,08,59,951.85
2021,09,08,09,00,951.85
2021,09,08,09,01,951.85
2021,09,08,09,02,951.85
2021,09,08,09,03,951.85
2021,09,08,09,04,951.85
2021,09,08,09,05,951.85
2021,09,08,09,06,951.85
2021,09,08,09,07,923.81
2021,09,08,09,08,909.79
2021,09,08,09,09,909.79
2021,09,08,09,10,909.79
2021,09,08,09,11,909.79
2021,09,08,09,12,909.79
2021,09,08,09,13,909.79
2021,09,08,09,14,909.79
2021,09,08,09,15,909.79
2021,09,08,09,16,909.79
2021,09,08,09,17,909.79
2021,09,08,09,18,909.79
2021,09,08,09,19,909.79
2021,09,08,14,59,1035.19
2021,09,08,15,00,1035.19
2021,09,08,15,01,1035.19
2021,09,08,15,02,1035.19
2021,09,08,15,03,1035.19
2021,09,08,15,04,1035.19
2021,09,08,15,05,1035.19
2021,09,08,15,06,1035.19
2021,09,08,15,07,1035.19
2021,09,08,15,08,1035.19
2021,09,08,15,09,1035.19
2021,09,08,15,10,1035.19
2021,09,08,15,11,1035.19
2021,09,08,15,12,1035.19
2021,09,08,15,13,1035.19
2021,09,08,15,14,1035.19
2021,09,08,15,15,1035.19
2021,09,08,15,16,1035.19
2021,09,08,15,17,1035.19
2021,09,08,15,18,1035.19
2021,09,08,15,19,1035.19
2021,09,08,15,20,1035.19
2021,09,08,15,21,1035.19
2021,09,08,15,22,1035.19
2021,09,08,15,23,1035.19
2021,09,08,15,24,1035.19
2021,09,08,15,25,1035.19
2021,09,08,15,26,1035.19
2021,09,08,15,27,1035.19
2021,09,08,15,28,1035.19
2021,09,08,15,29,1035.19
2021,09,08,15,30,1035.19
2021,09,08,15,31,1035.19
2021,09,08,15,32,1035.19
2021,09,08,15,33,1035.19
2021,09,08,15,34,1035.19
2021,09,08,15,35,1035.19
2021,09,08,15,36,1035.19
2021,09,08,15,37,1035.19
2021,09,08,15,38,1035.19
2021,09,08,15,39,1035.19
2021,09,08,15,40,1035.19
2021,09,08,15,41,1035.19
2021,09,08,15,42,1035.19
2021,09,08,15,43,1035.19
2021,09,08,15,44,1035.19
2021,09,08,15,45,1035.19
2021,09,08,15,46,1035.19
2021,09,08,15,47,1035.19
2021,09,08,15,48,1035.19
2021,09,08,15,49,1035.19
2021,09,08,15,50,1035.19
2021,09,08,15,51,1035.19
2021,09,08,15,52,1035.19
2021,09,08,15,53,1035.19
2021,09,08,15,54,1035.19
2021,09,08,15,55,1035.19
2021,09,08,15,56,1035.19
2021,09,08,15,57,1035.19
2021,09,08,15,58,1035.19
2021,09,08,15,59,1035.19
2021,09,08,16,00,1035.19
2021,09,08,16,01,1035.19
2021,09,08,16,02,1035.19
2021,09,08,16,03,1035.19
2021,09,08,16,04,1035.19
2021,09,08,16,05,1035.19
2021,09,08,16,06,1035.19
2021,09,08,16,07,1035.19
2021,09,08,16,08,1035.19
2021,09,08,16,09,1035.19
2021,09,08,16,10,1035.19
2021,09,08,16,11,1035.19
2021,09,08,16,12,1035.19
2021,09,08,16,13,1035.19
2021,09,08,16,14,1035.19
2021,09,08,16,15,1035.19
2021,09,08,16,16,1035.19
2021,09,08,16,17,1035.19
2021,09,08,16,18,1035.19
2021,09,08,16,19,1035.19
2021,09,08,16,20,1035.19
2021,09,08,16,21,1035.19
2021,09,08,16,22,1035.19
2021,09,08,16,23,1035.19
2021,09,08,16,24,1035.19
2021,09,08,16,25,1035.19
2021,09,08,16,26,1035.19
2021,09,08,16,27,1035.19
2021,09,08,16,28,1035.19
2021,09,08,16,29,1035.19
2021,09,08,16,30,1035.19
2021,09,08,16,31,1035.19
2021,09,08,16,32,1035.19
2021,09,08,16,33,1035.19
2021,09,08,16,34,1035.19
2021,09,08,16,35,1035.19
2021,09,08,16,36,1035.19
2021,09,08,16,37,1035.19
2021,09,08,16,38,1035.19
2021,09,08,16,39,1035.19
2021,09,08,16,40,1035.19
2021,09,08,16,41,1035.19
2021,09,08,16,42,1035.19
2021,09,08,16,43,1035.19
2021,09,08,16,44,1035.19
2021,09,08,16,45,1035.19
2021,09,08,16,46,1035.19
2021,09,08,16,47,1035.19
2021,09,08,16,48,1035.19
2021,09,08,16,49,1035.19
2021,09,08,16,50,1035.19
2021,09,08,16,51,1035.19
2021,09,08,16,52,1035.19
2021,09,08,16,53,1035.19
2021,09,08,16,54,1035.19
2021,09,08,16,55,1035.19
2021,09,08,16,56,1035.19
2021,09,08,16,57,1035.19
2021,09,08,16,58,1035.19
2021,09,08,16,59,1035.19
2021,09,08,17,00,1035.19
2021,09,08,17,01,1035.19
2021,09,08,17,02,1035.19
2021,09,08,17,03,1035.19
2021,09,08,17,04,1035.19
2021,09,08,17,05,1035.19
2021,09,08,17,06,1035.19
2021,09,08,17,07,1035.19
2021,09,08,17,08,1035.19
2021,09,08,17,09,1035.19
2021,09,08,17,10,1035.19
2021,09,08,17,11,1035.19
2021,09,08,17,12,1035.19
2021,09,08,17,13,1035.19
2021,09,08,17,14,1035.19
2021,09,08,17,15,1035.19
2021,09,08,17,16,1035.19
2021,09,08,17,17,1035.19
2021,09,08,17,18,1035.19
2021,09,08,17,19,1035.19
2021,09,08,17,20,1035.19
2021,09,08,17,21,1035.19
2021,09,08,17,22,1035.19
2021,09,08,17,23,1035.19
2021,09,08,17,24,1035.19
2021,09,08,17,25,1035.19
2021,09,08,17,26,1035.19
2021,09,08,17,27,1035.19
2021,09,08,17,28,1035.19
2021,09,08,17,29,1035.19
2021,09,08,17,30,1035.19
2021,09,08,17,31,1035.19
2021,09,08,17,32,1035.19
2021,09,08,17,33,1035.19
2021,09,08,17,34,1035.19
2021,09,08,17,35,1035.19
2021,09,08,17,36,1035.19
2021,09,08,17,37,1035.19
2021,09,08,17,38,1035.19
2021,09,08,17,39,1035.19
2021,09,08,17,40,1035.19
2021,09,08,17,41,1035.19
2021,09,08,17,42,1035.19
2021,09,08,17,43,1035.19
2021,09,08,17,44,1035.19
2021,09,08,17,45,1035.19
2021,09,08,17,46,1035.19
2021,09,08,17,47,1035.19
2021,09,08,17,48,1035.19
2021,09,08,17,49,1035.19
2021,09,08,17,50,1035.19
2021,09,08,17,51,1035.19
2021,09,08,17,52,1035.19
2021,09,08,17,53,1035.19
2021,09,08,17,54,1035.19
2021,09,08,17,55,1035.19
2021,09,08,17,56,1035.19
2021,09,08,17,57,1035.19
2021,09,08,17,58,1035.19
2021,09,08,17,59,1035.19
2021,09,08,18,00,1035.19
2021,09,08,18,01,1035.19
2021,09,08,18,02,1035.19
2021,09,08,18,03,1035.19
2021,09,08,18,04,1035.19
2021,09,08,18,05,1035.19
2021,09,08,18,06,1035.19
2021,09,08,18,07,1035.19
2021,09,08,18,08,1035.19
2021,09,08,18,09,1035.19
2021,09,08,18,10,1035.19
2021,09,08,18,11,1035.19
2021,09,08,18,12,1035.19
2021,09,08,18,13,1035.19
2021,09,08,18,14,1035.19
2021,09,08,18,15,1035.19
2021,09,08,18,16,1035.19
2021,09,08,18,17,1035.19
2021,09,08,18,18,1035.19
2021,09,08,18,19,1035.19
2021,09,08,18,20,1035.19
2021,09,08,18,21,1035.19
2021,09,08,18,22,1035.19
2021,09,08,18,23,1035.19
2021,09,08,18,24,1035.19
2021,09,08,18,25,1035.19
2021,09,08,18,26,1035.19
2021,09,08,18,27,1035.19
2021,09,08,18,28,1035.19
2021,09,08,18,29,1035.19
2021,09,08,18,30,1035.19
2021,09,08,18,31,1035.19
2021,09,08,18,32,1035.19
2021,09,08,18,33,1035.19
2021,09,08,18,34,1035.19
2021,09,08,18,35,1035.19
2021,09,08,18,36,1035.19
2021,09,08,18,37,1035.19
2021,09,08,18,38,1035.19
2021,09,08,18,39,1035.19
2021,09,08,18,40,1035.19
2021,09,08,18,41,1035.19
2021,09,08,18,42,1035.19
2021,09,08,18,43,1035.19
2021,09,08,18,44,1035.19
2021,09,08,18,45,1035.19
2021,09,08,18,46,1035.19
2021,09,08,18,47,1035.19
2021,09,08,18,48,1035.19
2021,09,08,18,49,1035.19
2021,09,08,18,50,1035.19
2021,09,08,18,51,1035.19
2021,09,08,18,52,1035.19
2021,09,08,18,53,1035.19
2021,09,08,18,54,1035.19
2021,09,08,18,55,1035.19
2021,09,08,18,56,1035.19
2021,09,08,18,57,1035.19
2021,09,08,18,58,1035.19
2021,09,08,18,59,1035.19
2021,09,08,19,00,1035.19
2021,09,08,19,01,1035.19
2021,09,08,19,02,1035.19
2021,09,08,19,03,1035.19
2021,09,08,19,04,1035.19
2021,09,08,19,05,1035.19
2021,09,08,19,06,1035.19
2021,09,08,19,07,1035.19
2021,09,08,19,08,1035.19
2021,09,08,19,09,1035.19
2021,09,08,19,10,1035.19
2021,09,08,19,11,1035.19
2021,09,08,19,12,1035.19
2021,09,08,19,13,1035.19
2021,09,08,19,14,1035.19
2021,09,08,19,15,1035.19
2021,09,08,19,16,1035.19
2021,09,08,19,17,1035.19
2021,09,08,19,18,1035.19
2021,09,08,19,19,1035.19
2021,09,08,19,20,1035.19
2021,09,08,19,21,1035.19
2021,09,08,19,22,1035.19
2021,09,08,19,23,1035.19
2021,09,08,19,24,1035.19
2021,09,08,19,25,1035.19
2021,09,08,19,26,1035.19
2021,09,08,19,27,1035.19
2021,09,08,19,28,1035.19
2021,09,08,19,29,1035.19
2021,09,08,19,30,1035.19
2021,09,08,19,31,1035.19
2021,09,08,19,32,1035.19
2021,09,08,19,33,1035.19
2021,09,08,19,34,1035.19
2021,09,08,19,35,1035.19
2021,09,08,19,36,1035.19
2021,09,08,19,37,1035.19
2021,09,08,19,38,1035.19
2021,09,08,19,39,1035.19
2021,09,08,19,40,1035.19
2021,09,08,19,41,1035.19
2021,09,08,19,42,1035.19
2021,09,08,19,43,1035.19
2021,09,08,19,44,1035.19
2021,09,08,19,45,1035.19
2021,09,08,19,46,1035.19
2021,09,08,19,47,1035.19
2021,09,08,19,48,1035.19
2021,09,08,19,49,1035.19
2021,09,08,19,50,1035.19
2021,09,08,19,51,1035.19
2021,09,08,19,52,1035.19
2021,09,08,19,53,1035.19
2021,09,08,19,54,1035.19
2021,09,08,19,55,1035.19
2021,09,08,19,56,1035.19
2021,09,08,19,57,1035.19
2021,09,08,19,58,1035.19
2021,09,08,19,59,1035.19
2021,09,08,20,00,1035.19
2021,09,08,20,01,1035.19
2021,09,08,20,02,1035.19
2021,09,08,20,03,1035.19
2021,09,08,20,04,1035.19
2021,09,08,20,05,1035.19
2021,09,08,20,06,1035.19
2021,09,08,20,07,1035.19
2021,09,08,20,08,1035.19
2021,09,08,20,09,1035.19
2021,09,08,20,10,1035.19
2021,09,08,20,11,1035.19
2021,09,08,20,12,1035.19
2021,09,08,20,13,1035.19
2021,09,08,20,14,1035.19
2021,09,08,20,15,1035.19
2021,09,08,20,16,1035.19
2021,09,08,20,17,1035.19
2021,09,08,20,18,1035.19
2021,09,08,20,19,1035.19
2021,09,08,20,20,1035.19
2021,09,08,20,21,1035.19
2021,09,08,20,22,1035.19
2021,09,08,20,23,1035.19
2021,09,08,20,24,1035.19
2021,09,08,20,25,1035.19
2021,09,08,20,26,1035.19
2021,09,08,20,27,1035.19
2021,09,08,20,28,1035.19
2021,09,08,20,29,1035.19
2021,09,08,20,30,1035.19
2021,09,08,20,31,1035.19
2021,09,08,20,32,1035.19
2021,09,08,20,33,1035.19
2021,09,08,20,34,1035.19
2021,09,08,20,35,1035.19
2021,09,08,20,36,1035.19
2021,09,08,20,37,1035.19
2021,09,08,20,38,1035.19
2021,09,08,20,39,1035.19
2021,09,08,20,40,1035.19
2021,09,08,20,41,1035.19
2021,09,08,20,42,1035.19
2021,09,08,20,43,1035.19
2021,09,08,20,44,1035.19
2021,09,08,20,45,1035.19
2021,09,08,20,46,1035.19
2021,09,08,20,47,1035.19
2021,09,08,20,48,1035.19
2021,09,08,20,49,1035.19
2021,09,08,20,50,1035.19
2021,09,08,20,51,1035.19
2021,09,08,20,52,1035.19
2021,09,08,20,53,1035.19
2021,09,08,20,54,1035.19
2021,09,08,20,55,1035.19
2021,09,08,20,56,1035.19
2021,09,08,20,57,1035.19
2021,09,08,20,58,1035.19
2021,09,08,20,59,1035.19
2021,09,08,21,00,1035.19
2021,09,08,21,01,1035.19
2021,09,08,21,02,1035.19
2021,09,08,21,03,1035.19
2021,09,08,21,04,1035.19
2021,09,08,21,05,1035.19
2021,09,08,21,06,1035.19
2021,09,08,21,07,1035.19
2021,09,08,21,08,1035.19
